Theta_e
352 351 351 349 348 348 348 348 348 348 346 344 346 345 343 345 346 346 347 347 349 351 350 351 355 355 355 357 356 354 353 352 349 347 347 349 343 342 348 349 347 347 346 345 346 345 344 344 343 340 340 340 339 339 340 339 339 340 341 343 343 344 345 345 345 346 345 343 343 342 342 342 341 340 340 339 337 336 336 336 335 335 334 334 333
353 351 351 349 348 347 347 348 347 347 347 345 344 345 344 344 345 345 346 347 349 352 350 350 353 353 353 355 355 354 353 351 350 348 346 345 344 345 349 349 346 346 346 346 346 345 343 342 342 342 340 340 339 338 338 338 339 340 341 342 343 344 346 344 344 346 346 344 343 342 342 342 341 340 339 338 337 336 336 335 335 335 335 334 333
352 351 351 349 348 347 346 347 348 347 347 346 346 345 343 344 345 345 346 347 349 351 351 351 352 353 354 355 356 355 353 351 352 348 344 345 348 349 349 348 347 348 348 346 344 344 343 341 341 342 340 339 339 338 339 339 339 339 340 342 343 344 345 346 345 345 345 344 343 342 342 341 340 340 339 337 336 336 335 335 335 335 334 334 333
353 351 352 350 348 347 347 347 348 348 347 347 347 346 344 343 344 345 347 347 349 351 351 351 354 356 356 357 357 355 353 353 351 346 344 348 349 348 349 349 349 348 346 344 343 343 343 342 341 342 340 340 339 338 339 339 339 341 340 341 343 343 344 345 345 344 343 343 343 342 342 341 340 339 338 336 335 335 335 335 334 334 334 334 333
355 351 352 351 348 347 348 348 347 347 347 348 347 346 344 343 343 345 346 347 348 350 350 355 358 357 357 359 358 355 353 352 349 345 346 349 348 347 349 349 347 346 343 343 344 343 342 343 342 342 341 340 339 339 339 340 340 341 342 342 342 343 344 345 345 344 343 343 343 343 342 341 340 340 338 337 336 335 335 334 334 334 334 335 334
354 352 351 352 350 348 348 349 347 347 347 348 348 346 344 343 343 345 346 347 349 349 350 356 360 358 357 359 358 355 354 351 346 344 347 348 348 348 349 348 346 345 344 344 344 343 342 343 342 342 342 342 341 341 342 342 341 341 342 342 342 343 344 344 345 344 344 344 343 343 342 340 339 339 339 338 337 336 335 335 334 333 334 336 335
352 352 353 353 353 351 350 348 347 347 348 348 347 346 345 344 344 346 346 347 351 351 351 354 358 357 357 360 358 355 353 350 344 344 347 348 349 348 347 347 346 346 345 344 343 342 341 342 343 343 344 342 340 340 341 342 341 341 342 341 342 343 344 344 344 344 344 343 343 342 341 340 339 338 338 338 338 337 336 336 335 333 334 335 335
352 352 352 354 356 354 351 350 349 348 349 349 348 348 348 344 345 349 349 350 353 354 354 353 355 358 359 359 358 355 352 348 344 345 348 349 348 348 347 347 346 346 345 344 343 341 340 341 342 342 341 339 337 337 339 342 343 343 343 342 342 343 344 343 344 344 343 343 342 341 340 339 339 338 337 338 338 337 337 336 335 334 333 334 334
353 352 353 357 361 358 351 351 351 349 349 350 348 349 351 346 345 352 354 354 357 358 359 357 356 359 360 359 358 354 351 348 344 345 347 347 348 348 347 347 347 346 345 344 342 341 342 344 343 340 340 340 338 334 334 338 342 343 344 344 343 343 344 343 344 343 343 342 341 340 339 339 339 338 337 337 337 338 337 335 335 334 333 333 331
357 357 358 361 363 361 357 354 353 351 352 353 351 350 352 348 348 356 360 359 359 359 359 359 359 360 360 359 358 354 351 349 346 345 345 346 348 349 347 347 347 345 345 344 341 340 342 343 341 340 342 343 341 336 330 332 338 339 342 344 344 344 345 344 343 343 342 342 341 340 339 339 338 338 337 336 336 337 337 336 336 335 334 334 333
360 359 360 361 361 360 360 359 357 356 357 360 358 354 352 351 351 357 362 362 360 358 358 359 361 362 359 358 357 354 352 352 349 345 344 345 348 348 348 348 347 346 346 345 341 339 339 339 339 341 342 342 343 339 332 333 338 339 339 342 343 343 344 344 344 343 342 342 340 339 339 339 339 338 336 336 335 336 336 336 336 336 335 336 335
358 358 359 360 360 361 360 359 359 360 363 364 362 358 353 353 355 358 363 364 361 359 360 361 363 363 360 358 355 354 354 354 350 344 342 345 349 348 348 349 348 346 346 345 343 340 339 338 340 342 343 343 343 340 334 335 341 342 340 340 340 341 342 343 343 343 342 342 340 340 340 340 340 338 336 335 335 335 335 335 335 335 335 335 335
357 358 358 359 359 360 359 359 358 360 366 367 366 361 356 357 359 360 365 366 362 361 363 364 364 363 361 358 355 355 355 354 350 343 338 341 347 349 347 348 348 346 344 344 344 342 340 338 339 342 343 342 342 341 336 337 341 344 343 342 342 342 342 343 343 342 342 342 341 341 341 340 339 337 335 334 334 333 334 335 335 334 334 335 334
357 358 357 356 357 358 360 361 359 361 362 362 364 363 360 361 363 365 368 367 364 365 366 365 364 363 361 358 355 355 355 353 350 342 335 337 344 347 347 347 347 345 344 344 344 343 341 338 339 341 339 336 339 341 339 338 341 343 343 342 342 343 342 343 343 343 342 341 341 341 340 340 339 337 335 334 333 333 334 334 334 334 334 334 333
357 356 355 355 355 356 359 361 361 363 363 361 359 360 364 368 366 366 369 367 366 366 366 365 365 363 362 358 356 356 355 352 349 342 334 333 340 347 348 347 346 345 344 343 341 341 341 340 340 340 337 337 341 341 339 338 340 341 341 340 341 341 341 342 343 343 342 342 341 341 340 338 336 336 335 333 333 333 333 333 333 333 333 333 334
354 353 352 354 354 354 358 360 360 361 362 363 361 356 358 365 368 368 368 366 367 367 365 366 365 364 362 359 356 356 354 351 348 343 335 331 338 348 349 345 346 345 341 340 340 340 341 341 341 340 338 340 342 339 337 338 339 339 338 339 340 339 338 340 342 341 341 341 340 340 340 337 335 335 335 334 335 336 334 333 333 334 334 333 334
354 352 351 352 352 353 355 357 358 358 357 360 363 360 356 357 362 368 368 366 368 368 366 366 366 364 362 359 357 356 354 351 348 343 336 331 336 346 348 345 346 343 338 338 341 343 343 342 343 341 339 341 341 337 336 338 339 338 337 338 341 339 337 337 339 339 339 338 337 337 336 336 336 336 337 336 337 338 337 336 335 335 334 334 334
353 353 352 351 349 350 352 355 357 357 357 359 360 360 359 355 355 360 365 368 369 367 367 367 366 365 362 359 358 356 354 352 347 343 337 331 334 345 348 344 343 340 338 339 341 343 344 343 343 341 340 340 339 335 335 338 338 338 338 338 339 340 339 337 336 336 336 334 334 334 334 334 335 335 336 337 338 338 338 337 335 332 332 332 332
353 353 353 351 348 348 352 356 356 357 359 359 358 358 360 359 356 355 360 367 369 367 367 367 365 365 362 359 359 356 354 352 347 343 338 331 336 346 347 343 340 339 341 341 341 342 343 343 342 341 342 340 334 331 335 339 339 339 338 336 336 339 341 339 336 335 335 335 336 337 337 337 336 335 337 337 337 337 337 336 334 332 332 330 329
352 351 352 352 350 350 353 355 355 356 358 359 358 358 358 359 358 355 358 365 368 366 366 366 365 365 362 361 360 356 355 352 347 344 338 332 338 348 346 340 340 342 342 342 342 343 342 342 342 341 342 339 331 331 337 339 339 339 338 338 338 339 341 341 339 340 340 340 340 340 340 339 339 338 337 336 334 334 336 335 333 333 333 330 329
347 345 348 351 351 352 353 352 352 354 357 358 359 359 359 359 358 356 357 361 365 366 365 363 363 364 361 361 359 356 356 353 348 345 338 332 339 347 345 340 341 344 343 342 343 343 342 342 340 339 340 336 330 332 337 337 338 339 339 340 341 342 342 341 341 342 342 341 341 340 340 340 339 337 334 331 331 333 335 333 330 329 331 330 329
344 343 346 348 349 351 351 349 349 352 356 359 359 359 360 359 358 358 355 353 356 362 363 362 362 362 360 359 358 357 357 355 351 346 337 331 338 345 343 340 343 344 343 342 343 343 341 341 339 338 338 333 327 331 335 334 335 338 339 340 340 341 341 340 340 341 341 341 341 340 340 340 337 333 329 328 329 332 332 330 327 326 327 328 328
345 345 346 347 349 351 349 347 348 351 354 357 357 358 359 358 357 358 356 351 350 353 357 359 362 362 359 359 358 357 357 356 353 349 338 332 337 343 342 341 344 344 342 342 343 342 341 341 339 339 337 330 325 330 332 332 333 336 337 338 338 339 340 339 339 341 340 339 339 338 338 336 333 330 329 327 329 330 329 327 325 324 325 327 328
348 347 345 345 348 351 348 345 346 348 351 353 353 354 354 353 354 354 355 353 350 349 350 353 357 360 360 359 358 357 356 355 354 352 343 334 335 339 340 341 344 343 341 341 341 341 341 341 340 339 336 328 323 327 329 327 325 325 330 335 336 337 339 339 338 340 339 337 336 335 334 332 330 330 329 328 329 330 330 329 328 328 328 329 329
351 350 347 345 345 348 348 346 344 344 346 347 348 349 349 350 351 353 354 354 351 349 349 349 352 358 359 359 358 357 356 355 354 352 347 338 335 337 338 341 343 343 341 340 340 342 342 340 339 338 334 325 320 321 323 320 315 313 321 331 335 337 339 339 339 339 338 336 335 334 333 332 331 330 329 328 329 331 330 330 330 330 330 330 331
351 351 350 347 346 345 346 346 345 344 343 342 342 345 347 347 349 352 355 355 353 351 349 348 351 356 359 359 358 357 356 355 353 351 346 339 334 335 337 340 342 343 343 341 342 343 341 340 338 335 330 323 319 320 321 318 313 315 324 333 337 337 339 339 338 337 338 336 334 334 334 333 330 329 329 329 329 329 329 329 330 330 329 329 330
349 350 350 350 349 347 346 346 347 347 345 343 342 344 347 347 347 349 350 352 355 355 353 352 354 357 358 359 358 357 357 355 352 351 347 340 334 332 334 339 341 341 342 343 343 342 341 339 337 333 327 322 320 323 325 320 316 324 332 336 337 337 338 338 336 336 338 336 333 333 334 330 328 328 329 328 327 327 329 330 330 328 325 323 325
350 349 348 348 349 350 349 347 347 347 347 345 344 345 346 347 348 348 346 347 353 358 357 357 359 358 358 359 359 358 358 355 353 351 350 345 337 332 332 336 339 340 341 342 342 341 339 338 335 329 325 322 322 328 330 323 320 328 335 335 335 336 337 335 333 335 337 335 332 333 332 330 330 331 329 327 326 328 331 331 330 328 324 322 323
351 350 348 347 347 349 349 348 347 347 346 346 346 344 343 344 347 347 346 345 348 351 351 352 355 356 357 357 357 358 358 356 353 352 352 349 343 336 332 333 337 340 340 340 340 338 336 336 332 328 325 323 325 331 332 325 321 328 333 333 334 336 335 333 333 336 336 333 332 332 331 331 334 334 331 329 330 331 331 331 330 329 327 325 325
349 349 349 348 347 348 349 349 349 348 347 347 348 348 345 344 345 345 345 345 344 344 344 344 346 351 355 355 355 355 355 356 354 353 352 350 347 341 333 331 335 340 339 338 338 336 334 333 331 328 327 326 327 332 332 325 323 328 331 331 332 334 334 333 333 334 334 332 332 331 329 331 334 334 332 332 332 332 332 331 329 329 330 329 326
348 348 349 348 348 348 349 349 350 349 349 349 349 348 347 345 344 343 343 343 342 342 344 344 345 348 350 352 353 354 354 353 354 353 351 349 348 344 335 330 334 338 339 337 335 334 333 332 330 330 330 329 329 332 331 325 323 325 328 329 331 333 333 333 334 334 333 332 331 329 328 331 333 333 333 332 332 332 332 331 330 330 331 331 328
349 348 347 346 346 347 349 350 348 347 349 351 350 349 350 349 348 347 345 344 345 345 346 348 350 351 351 351 352 354 354 354 354 353 351 350 348 344 336 330 331 335 338 337 335 333 332 331 330 331 330 329 330 331 330 326 324 325 327 329 332 334 333 332 333 334 333 333 332 329 328 330 332 332 332 331 331 333 332 330 330 330 331 331 329
349 347 347 346 345 346 347 349 348 346 347 349 350 349 350 351 352 353 351 350 350 350 350 351 353 354 354 354 353 353 354 355 354 352 351 350 347 343 337 331 328 332 337 337 335 333 332 330 329 329 329 328 330 332 331 327 325 327 330 331 332 333 331 330 332 334 333 333 332 329 329 331 331 331 331 330 330 332 331 330 331 330 329 330 329
350 349 347 347 347 346 346 346 347 346 345 345 346 347 348 350 352 354 353 353 352 352 353 353 353 354 355 355 354 352 352 353 353 352 350 348 346 343 338 331 327 331 336 336 334 333 331 329 328 329 329 329 331 332 332 331 328 329 333 332 331 331 330 328 331 333 332 331 331 329 329 330 329 329 330 329 330 331 329 329 330 329 327 329 328
350 350 348 347 348 349 347 345 346 345 345 345 345 346 347 348 349 350 351 353 354 354 354 354 352 351 352 352 352 352 351 350 351 350 348 346 344 340 334 330 330 333 336 335 333 333 331 329 330 331 332 332 332 331 333 334 332 332 333 332 330 331 329 328 330 331 329 329 330 329 328 328 328 329 330 329 329 330 329 328 330 329 327 328 329
345 349 350 349 348 348 348 348 347 346 345 346 346 347 347 347 347 347 350 352 353 354 354 352 350 349 348 348 349 349 348 347 346 345 344 343 341 337 332 329 331 334 334 333 333 333 332 331 332 333 334 334 333 331 333 334 334 334 333 331 330 330 329 329 330 331 329 328 328 329 328 327 327 328 330 329 328 329 329 328 329 330 328 328 329
339 343 348 349 349 349 350 348 347 347 347 347 346 347 347 348 348 347 347 350 352 352 352 350 348 346 344 343 343 343 342 341 341 341 340 339 338 334 331 329 331 333 333 332 333 333 332 332 333 334 335 334 332 331 331 333 334 334 332 331 330 330 330 329 330 331 330 328 328 328 327 327 326 327 329 330 328 328 329 327 328 329 327 326 327
336 337 340 344 347 349 350 349 347 347 347 347 347 346 346 348 348 345 345 347 349 351 350 349 346 344 342 339 337 337 337 338 338 337 336 335 333 331 331 331 331 332 332 332 332 333 332 333 335 336 335 333 330 329 331 333 333 333 332 331 330 330 329 329 330 331 330 328 329 329 327 325 325 326 327 329 329 329 329 327 327 327 327 325 327
335 336 335 336 337 340 345 348 348 346 344 344 345 345 344 345 345 344 344 347 349 351 351 349 345 343 341 337 334 334 334 335 334 333 332 331 330 331 332 332 331 332 332 331 332 332 332 334 335 336 335 331 328 329 331 333 333 333 333 331 329 329 329 328 330 332 329 326 327 328 326 325 325 325 325 327 328 328 329 329 327 326 326 325 326
336 336 334 332 331 331 335 341 346 347 345 343 343 342 341 342 343 345 347 349 350 350 351 350 347 344 342 339 336 334 333 332 332 333 333 332 330 331 332 332 331 332 331 331 331 331 332 333 334 334 333 330 328 329 332 333 333 334 334 332 329 329 329 329 330 331 329 326 326 327 326 325 324 325 324 325 326 327 329 328 327 325 325 325 325
335 335 334 331 329 328 329 333 340 346 348 346 345 343 341 342 345 347 350 350 350 349 350 350 349 346 344 342 340 337 333 332 333 333 332 331 330 330 332 333 332 332 332 332 331 330 331 333 333 332 331 328 327 328 329 330 332 335 335 333 331 329 328 329 330 330 328 325 325 326 326 325 324 325 325 324 324 326 327 328 328 326 324 325 325
333 334 334 332 330 329 329 331 336 342 346 348 348 347 345 344 345 346 348 350 349 349 348 349 350 348 346 344 343 340 336 334 334 333 332 330 330 330 332 334 334 333 333 333 331 330 331 332 332 331 329 325 324 328 330 329 331 334 334 334 333 330 329 330 329 328 327 325 324 325 327 326 325 325 326 325 323 324 326 327 328 327 325 324 323
332 332 332 331 330 330 330 331 334 338 342 345 348 348 348 347 346 345 347 348 349 348 348 348 349 348 345 343 342 341 338 336 335 335 333 332 332 332 332 334 335 335 334 335 333 331 331 332 331 331 328 323 324 331 333 329 328 331 333 334 334 332 330 331 330 328 326 326 325 324 326 327 326 325 325 325 324 323 325 327 327 327 327 325 322
333 332 332 331 331 330 329 329 330 332 336 341 345 347 348 348 348 347 347 348 348 348 348 347 347 347 344 341 339 339 338 337 336 335 334 333 333 334 334 334 335 335 335 337 336 333 332 331 331 330 328 325 326 332 333 329 327 330 333 334 335 334 332 332 332 329 328 327 327 326 325 327 327 325 325 326 325 324 325 327 327 327 327 325 323
333 333 332 330 330 329 329 329 329 330 332 337 342 345 347 348 348 348 347 346 347 347 347 347 347 347 345 342 339 338 339 338 336 335 334 333 333 333 333 334 334 334 336 338 338 335 334 333 331 330 328 327 327 331 332 330 329 331 334 334 334 335 333 332 332 331 330 329 329 328 325 326 327 326 325 326 326 324 325 326 327 327 327 326 325
332 332 331 330 330 330 329 330 331 332 334 335 337 339 343 346 347 348 347 346 346 346 346 347 347 346 345 344 341 340 339 338 337 336 336 334 334 333 333 333 334 334 335 338 339 337 335 334 333 331 330 328 327 329 331 331 330 331 333 334 334 335 335 333 332 332 330 330 330 329 326 326 327 327 326 326 326 325 325 325 326 327 327 326 325
331 332 331 330 329 329 328 328 329 331 333 335 336 337 338 342 345 346 347 346 346 346 346 346 347 346 345 344 342 340 339 337 338 338 337 336 335 335 334 334 334 334 334 337 339 338 336 335 335 334 332 330 327 327 329 330 330 331 333 333 333 334 334 334 333 332 331 330 330 329 327 325 326 327 326 326 325 325 325 324 325 326 327 326 325
330 330 329 328 328 327 327 328 328 329 330 332 334 335 336 338 340 343 345 346 347 347 346 346 346 346 345 344 342 341 339 338 337 337 337 337 337 336 335 335 336 335 336 337 339 339 338 337 336 335 334 332 330 328 328 328 330 332 332 332 333 333 334 333 332 331 331 330 329 328 327 326 325 326 326 326 325 325 324 324 325 326 326 326 326
328 327 327 327 327 327 327 328 328 329 330 331 332 333 334 335 336 339 342 344 346 346 346 346 346 346 346 345 343 341 340 338 337 336 336 337 338 338 337 336 337 337 337 338 339 339 338 337 335 334 333 332 332 330 328 327 329 331 332 332 333 332 332 332 332 331 330 330 329 328 328 327 325 325 325 325 325 325 324 323 324 326 326 326 325
326 325 325 325 326 327 327 328 328 329 329 329 330 330 332 333 334 335 337 341 344 346 346 346 346 346 346 346 344 342 341 340 338 337 337 336 337 338 338 337 337 337 338 338 339 339 338 336 335 334 332 332 332 332 330 329 330 332 332 332 332 331 331 331 331 331 330 330 330 329 329 329 328 326 326 325 325 325 323 322 323 325 326 326 325
325 324 324 324 324 325 326 327 328 328 328 329 329 329 330 331 332 332 333 335 340 343 345 346 346 346 346 346 345 344 342 341 340 339 338 337 337 338 338 338 337 337 337 338 338 338 337 336 335 334 333 333 333 334 334 333 333 332 331 331 331 331 330 331 331 331 330 330 331 330 329 330 330 329 327 326 325 324 324 323 323 323 325 326 326
Wind_Speed
21 24 23 21 21 20 21 22 21 20 19 18 15 15 17 17 16 14 12 12 12 12 12 11 12 12 12 13 12 11 11 8 7 6 6 8 8 8 8 8 7 7 7 7 7 7 8 7 7 10 12 13 14 12 9 12 15 14 13 12 13 12 10 9 5 4 9 12 14 14 14 15 16 16 17 16 16 17 18 19 18 19 21 24 26
21 24 25 23 22 21 21 23 24 21 19 18 17 16 16 17 18 17 15 14 12 13 13 12 11 10 9 12 14 13 12 9 7 7 7 8 8 8 8 8 8 8 6 6 6 6 7 7 6 7 10 10 11 12 12 13 13 14 14 12 12 12 9 8 7 6 8 10 13 15 14 15 17 16 16 16 16 16 17 17 17 17 17 19 22
22 23 25 25 23 21 21 22 24 23 20 18 18 18 17 16 16 17 16 14 13 15 13 12 13 12 10 13 14 12 11 9 8 8 8 9 10 9 9 8 8 7 6 6 6 6 6 7 7 7 8 9 10 11 12 13 12 12 12 11 10 11 9 8 8 9 9 9 11 13 14 15 16 16 16 16 16 17 18 18 18 18 19 20 22
23 23 23 24 24 22 20 18 22 22 20 19 18 18 18 17 16 16 16 15 15 14 13 13 16 15 12 14 13 11 12 11 9 8 8 10 11 10 9 7 7 6 6 7 7 6 6 6 7 7 8 9 10 11 11 12 12 11 11 10 10 10 9 9 9 10 10 10 11 12 12 14 15 15 16 17 18 18 19 20 20 20 20 20 21
20 22 22 22 24 24 20 15 20 21 20 19 18 18 19 18 17 16 15 14 15 15 13 13 17 16 13 14 14 13 14 13 9 8 10 10 10 10 8 7 7 7 7 6 6 5 5 6 6 7 8 8 8 9 11 11 11 10 10 9 9 9 9 10 10 11 11 10 11 11 12 13 13 13 14 16 17 18 19 19 19 19 17 16 17
20 20 21 20 22 24 21 16 18 20 21 20 18 18 20 19 16 16 17 13 13 16 17 14 14 14 14 15 15 16 16 13 9 9 11 10 10 10 9 9 9 8 7 6 5 4 4 5 6 7 7 8 7 7 9 11 10 9 9 7 8 9 9 9 9 10 11 11 11 12 12 12 12 12 12 13 14 14 16 17 17 18 18 15 15
25 21 20 21 23 24 23 19 18 19 19 20 19 18 19 19 14 15 20 17 11 12 17 16 13 13 16 17 17 17 15 12 10 10 11 11 11 11 10 10 9 8 7 6 4 4 4 4 6 7 6 6 6 5 7 10 9 8 9 7 8 9 9 8 9 10 11 12 12 12 11 10 11 11 11 13 14 13 14 14 15 17 19 16 16
28 27 24 21 22 25 25 21 20 21 19 20 20 18 16 17 14 12 18 19 13 10 13 14 12 14 18 19 18 16 14 12 11 12 12 12 11 11 11 10 10 9 7 6 5 4 3 4 6 6 5 5 6 4 5 9 9 8 8 7 8 9 8 9 8 8 11 13 13 12 12 10 10 10 11 12 13 13 14 14 14 15 18 19 19
26 28 25 19 18 22 27 25 22 23 22 21 23 19 13 14 14 11 15 16 13 10 10 10 12 15 19 19 17 14 13 13 12 12 13 13 12 11 11 11 10 9 8 6 5 4 2 5 8 7 6 7 7 7 5 5 6 6 7 7 7 7 7 9 8 8 11 14 13 12 13 12 11 13 13 12 13 13 13 14 14 14 17 19 20
17 18 17 16 15 16 21 23 23 25 23 22 26 23 15 13 14 13 14 14 12 12 12 11 13 18 19 18 17 15 13 13 13 12 13 13 12 11 11 10 10 9 8 6 6 4 3 6 8 8 7 8 8 8 7 4 3 4 4 6 8 8 9 9 9 9 10 12 12 12 12 12 13 13 12 12 13 13 13 13 13 13 14 15 16
11 13 15 18 18 15 17 18 18 25 26 22 24 26 19 15 15 15 15 15 14 14 15 13 14 19 19 18 16 15 14 14 13 13 13 13 13 12 11 11 10 9 9 7 6 5 4 4 6 7 7 6 6 8 10 9 9 8 6 6 8 10 12 12 10 10 10 12 13 13 12 13 13 12 13 13 14 15 15 14 12 12 12 11 11
11 15 18 19 20 20 19 16 15 17 25 24 23 24 22 19 19 17 17 17 17 16 17 16 16 18 18 17 16 14 14 15 14 14 14 14 13 12 11 11 10 9 9 8 6 6 6 6 6 6 6 4 4 7 10 11 12 11 9 9 10 11 13 12 10 9 10 12 13 13 13 13 13 13 13 14 15 14 14 14 14 13 13 11 10
13 15 18 18 18 19 21 20 16 14 15 21 24 25 23 21 22 22 20 19 19 18 18 18 18 18 18 18 16 15 16 16 14 14 15 15 14 12 10 11 10 10 9 8 7 7 7 7 6 5 6 6 4 5 8 9 9 9 9 9 10 10 10 11 10 9 10 13 14 14 14 14 14 13 12 12 13 12 12 14 14 13 12 10 11
13 15 17 17 16 15 15 20 22 16 12 12 15 21 24 24 23 23 23 21 20 20 20 20 20 20 20 19 17 16 17 17 15 14 15 16 16 13 11 11 11 10 10 9 8 8 8 7 7 5 6 6 5 5 5 5 5 7 7 7 6 5 5 8 11 11 11 13 15 15 14 14 13 12 11 11 12 11 12 13 13 12 11 10 11
10 13 15 14 13 13 12 15 21 21 15 12 12 14 18 23 25 23 23 23 22 21 21 22 22 20 20 20 17 16 18 17 16 15 15 16 17 14 11 12 12 11 11 10 9 9 9 8 7 6 6 6 6 7 6 3 4 7 6 4 3 3 3 6 10 11 12 13 14 14 13 13 14 14 13 12 11 11 12 14 14 14 13 11 11
9 11 14 14 11 11 13 14 15 16 16 17 17 15 16 17 23 25 24 23 23 22 22 22 21 21 21 20 17 17 18 17 17 16 16 18 18 15 12 13 13 12 13 10 9 10 10 9 8 8 8 8 8 9 8 6 6 6 5 4 4 5 5 6 8 9 10 10 10 11 11 12 13 13 12 11 10 10 11 14 14 13 13 12 11
10 12 15 16 13 10 11 12 13 12 12 15 20 19 16 16 18 22 24 23 22 22 22 21 21 20 20 20 19 18 18 18 18 17 18 20 20 16 13 15 14 13 12 11 11 12 11 9 9 9 10 10 8 9 9 8 7 6 6 6 5 5 6 7 7 8 8 8 9 10 11 11 11 11 10 9 8 6 7 11 12 11 12 11 10
6 11 14 16 14 10 8 9 10 11 12 14 18 20 18 17 19 18 20 23 23 22 21 20 19 20 20 20 20 20 20 19 19 19 19 21 21 18 16 16 15 13 13 13 13 13 11 11 11 10 11 10 8 9 11 9 7 7 6 7 7 6 7 8 8 10 10 10 12 12 11 11 11 11 10 9 8 7 6 5 7 10 11 11 11
3 6 9 13 15 11 7 8 9 11 13 16 19 20 19 19 18 18 18 21 22 21 20 19 18 18 19 19 19 20 21 20 20 20 20 22 22 18 17 17 16 16 16 15 14 14 12 13 12 10 10 9 8 11 14 10 7 7 7 7 8 9 11 9 9 11 11 11 11 10 9 9 10 10 10 8 7 6 8 9 6 4 9 13 15
3 3 4 7 12 13 10 9 11 13 13 15 17 16 14 15 15 16 18 18 20 19 19 20 19 18 18 19 18 19 20 21 22 21 21 23 22 19 18 18 17 17 17 16 16 15 13 14 14 12 10 9 11 15 16 11 9 8 7 7 7 9 13 12 8 8 9 8 8 7 7 7 8 10 10 8 7 6 6 7 8 6 10 16 15
6 8 8 8 8 9 10 10 12 14 16 15 13 12 12 13 13 12 14 13 15 19 19 18 19 20 19 19 18 17 18 20 22 23 23 24 23 20 18 19 18 17 17 16 15 16 15 15 15 14 11 10 14 18 16 11 10 8 6 6 8 11 13 11 8 8 9 9 9 9 9 9 10 11 11 9 8 8 6 6 9 11 15 16 16
8 8 8 8 8 8 9 12 12 12 16 18 16 14 15 17 15 11 12 11 11 14 19 18 18 19 19 19 18 17 16 17 20 23 25 25 24 22 19 18 17 17 18 17 15 16 17 16 16 16 13 12 16 18 15 11 11 9 7 9 11 12 11 9 9 9 9 11 11 10 10 11 12 12 12 10 9 8 8 9 10 13 16 16 16
6 7 8 7 8 8 9 10 8 7 11 17 18 17 17 16 14 13 11 9 12 11 11 14 17 18 18 18 18 17 16 16 18 21 25 27 26 23 20 18 18 18 19 18 17 17 17 17 17 17 15 15 18 18 14 12 12 10 8 9 11 12 10 8 8 8 8 9 9 8 10 12 13 13 11 10 10 10 12 13 14 15 16 15 15
7 7 8 9 9 10 10 9 6 4 7 11 14 16 16 14 12 10 9 8 10 13 12 10 13 17 17 16 16 16 16 17 18 18 22 26 27 25 21 20 19 19 19 18 17 16 18 18 17 17 17 18 19 17 15 13 12 11 10 10 11 12 10 7 8 7 6 9 8 7 11 15 14 13 12 12 13 14 15 16 16 17 17 16 14
9 9 10 11 11 11 10 10 9 7 6 6 8 10 13 12 12 10 8 10 13 13 13 14 15 15 16 16 17 17 17 19 19 19 20 24 27 26 22 21 21 20 18 17 16 17 18 18 16 16 18 19 19 17 15 13 11 11 12 13 13 13 9 7 8 7 7 10 8 8 14 16 15 14 14 14 14 14 15 16 17 17 17 15 14
9 10 10 12 14 14 14 12 12 12 12 12 10 10 11 11 11 11 9 9 11 13 14 16 17 16 16 17 18 19 19 19 19 20 21 24 28 28 24 22 22 21 19 17 17 17 18 17 15 17 20 20 19 17 15 13 12 13 15 17 17 13 9 9 10 10 9 10 9 10 14 13 13 14 14 14 15 16 16 17 17 16 14 14 13
8 9 10 12 14 15 17 17 16 15 15 16 16 13 11 10 11 13 14 13 13 14 16 18 19 17 16 18 19 19 20 20 18 19 21 25 29 30 28 24 24 23 20 18 18 19 20 17 15 17 20 19 18 16 13 12 15 17 19 21 18 13 10 11 12 12 11 10 10 12 13 13 14 15 14 14 15 15 15 15 15 14 14 14 14
7 7 9 11 13 15 15 16 17 18 17 16 17 16 15 14 15 17 17 16 15 14 15 16 15 14 13 16 18 19 20 21 21 21 21 24 29 32 30 26 25 24 21 19 19 21 21 19 16 19 21 19 18 15 12 13 17 20 22 22 17 12 12 12 12 13 13 11 12 16 16 15 16 15 14 14 14 14 14 14 14 14 15 16 15
9 8 8 9 11 14 16 17 18 18 18 17 18 19 20 20 19 19 19 17 15 14 13 14 14 13 13 14 17 18 18 20 23 24 22 21 26 32 32 28 25 23 21 21 23 24 24 22 21 22 22 20 18 15 13 14 17 19 21 21 15 12 13 15 13 14 13 12 16 19 17 15 15 14 14 14 13 12 13 14 13 14 16 17 17
11 10 9 8 9 10 14 17 18 18 19 19 18 19 20 21 21 22 21 18 16 16 17 18 19 19 18 17 18 20 21 23 25 26 25 21 22 28 34 32 27 23 22 22 24 25 25 24 22 22 22 20 17 16 16 17 18 19 20 19 16 14 16 17 15 14 13 14 18 19 16 15 15 15 16 16 12 11 12 13 13 14 14 14 17
11 10 11 11 10 9 10 13 14 16 18 18 16 16 18 20 21 22 21 19 19 20 22 23 23 24 24 22 21 22 24 26 27 28 27 24 20 23 32 34 30 26 25 25 25 25 24 23 21 20 20 20 18 18 18 19 19 20 19 18 17 17 18 17 16 15 15 15 17 17 16 16 17 16 16 16 12 10 12 12 12 13 12 10 15
11 10 13 14 13 12 11 9 10 14 17 17 16 17 18 17 18 19 20 21 23 25 27 26 27 28 27 27 26 24 24 26 28 28 28 26 22 24 31 34 32 29 28 26 25 24 23 23 22 20 20 20 20 20 20 20 21 22 20 18 17 19 20 19 18 18 17 15 15 17 17 17 17 16 17 18 14 12 13 13 13 13 11 8 13
13 13 14 14 14 15 13 7 5 9 13 14 15 17 17 16 14 14 16 19 23 26 28 29 29 29 29 29 31 28 25 24 26 27 27 27 25 27 32 35 34 32 31 28 25 23 23 23 22 21 21 21 20 20 20 21 22 22 21 19 19 20 21 20 19 19 19 17 17 19 19 18 17 16 18 19 17 15 15 15 14 14 11 9 12
14 14 15 13 13 14 14 9 4 4 6 10 12 12 12 12 11 10 10 12 15 19 23 25 27 27 28 29 31 30 27 24 24 25 27 28 27 29 33 34 34 34 34 31 27 24 23 23 22 22 23 22 21 21 21 21 23 23 21 20 20 20 21 20 20 21 20 19 20 20 19 18 18 16 18 20 19 17 17 17 15 14 12 10 12
15 13 11 12 11 12 14 12 7 4 6 9 11 9 8 9 9 9 10 11 11 12 15 18 18 19 21 24 27 28 27 25 23 25 28 29 29 32 34 35 35 36 35 32 27 25 24 24 23 24 24 23 23 23 22 21 24 24 21 20 20 21 22 22 22 23 21 20 20 20 19 19 18 17 17 20 18 18 20 20 18 17 14 12 13
15 12 9 9 10 12 14 14 12 8 7 8 9 7 6 8 9 11 12 13 12 11 11 12 13 13 14 19 22 24 25 24 22 23 25 28 32 37 39 39 39 37 34 31 27 25 24 24 23 24 24 23 22 22 21 20 21 22 22 20 20 21 24 24 23 23 22 20 20 20 19 19 19 17 17 19 18 18 20 20 19 19 17 13 12
16 13 10 9 9 9 10 12 14 14 11 9 9 8 8 10 11 12 12 13 13 13 11 11 12 11 12 15 17 18 18 17 17 18 21 26 33 37 38 39 40 36 32 29 26 24 24 24 23 24 24 23 23 23 21 19 19 20 21 21 20 21 24 24 23 24 24 22 20 20 20 20 20 18 18 19 19 19 19 19 19 19 19 15 13
16 15 13 11 10 10 9 7 9 13 14 14 12 10 11 13 12 12 14 15 16 16 14 13 12 11 12 13 14 14 14 15 17 19 22 29 35 34 31 33 35 34 31 29 26 24 24 23 22 25 26 24 24 24 22 19 18 18 20 21 21 21 23 24 22 23 25 24 21 20 20 20 19 19 19 18 19 19 19 18 18 19 19 16 14
15 15 15 15 14 15 13 9 6 7 10 13 13 11 13 15 15 16 17 18 17 17 15 15 15 13 13 13 15 16 17 19 21 23 26 33 36 33 29 31 32 31 30 30 27 25 25 23 22 25 28 27 25 23 21 19 19 20 21 22 21 19 22 25 24 23 25 26 23 20 20 20 19 19 19 18 17 19 18 16 17 19 18 16 15
14 14 16 17 17 17 17 15 10 8 10 13 14 14 15 18 19 19 18 17 15 16 15 15 16 17 16 15 17 20 21 20 22 26 30 35 37 33 29 30 31 30 30 31 30 28 27 27 26 28 30 28 25 23 24 25 23 21 22 24 23 20 21 24 25 24 25 26 25 21 20 21 20 18 19 19 17 17 18 16 16 19 19 16 16
16 16 16 17 19 19 18 17 14 10 9 10 11 11 13 16 17 16 15 14 13 13 14 14 14 17 20 16 15 19 21 18 19 25 29 33 38 38 33 30 31 32 31 33 34 34 33 32 30 31 31 29 25 23 27 30 27 22 21 23 24 23 21 22 23 24 24 26 26 22 20 23 23 19 19 20 18 17 18 17 16 18 20 17 17
16 17 16 17 18 19 18 17 15 13 11 10 9 9 10 10 11 12 12 12 11 10 12 13 12 12 19 17 12 15 19 17 17 21 24 26 33 39 37 31 30 31 32 34 37 39 37 33 31 30 32 31 27 25 28 32 31 26 23 23 24 24 23 21 23 25 25 25 26 24 20 22 24 21 19 20 20 18 18 18 17 17 20 19 18
16 17 18 18 18 17 18 18 17 15 12 11 10 10 9 8 10 10 10 10 10 10 11 12 9 8 16 17 12 14 19 19 17 20 22 22 26 34 37 34 31 29 29 32 36 39 36 34 32 32 31 30 29 26 27 33 35 31 25 23 24 25 24 23 24 26 26 26 26 26 22 21 24 23 20 20 21 20 18 19 19 18 19 20 20
16 17 17 18 17 17 17 18 19 18 16 13 12 11 10 9 10 10 8 8 10 10 11 11 8 7 13 17 16 17 21 20 18 19 21 22 23 28 32 34 33 30 27 27 33 37 36 34 34 34 32 32 31 27 25 29 33 30 25 23 25 25 26 25 24 26 27 26 26 27 25 21 23 25 22 19 21 21 19 19 21 20 19 20 20
15 16 16 17 17 17 17 17 18 19 18 16 13 12 12 11 10 10 9 9 10 10 10 11 10 9 13 17 19 20 22 21 18 18 20 22 24 27 28 28 31 33 29 24 27 34 36 35 34 34 34 36 36 32 27 27 29 27 25 24 25 25 27 27 24 25 27 26 24 27 28 23 21 24 24 20 20 21 20 20 22 22 21 21 20
15 15 16 16 17 17 17 17 17 17 17 16 15 14 12 10 11 12 13 13 13 11 10 10 11 11 13 16 19 21 22 21 18 17 17 19 23 29 30 28 30 33 31 25 25 31 34 34 33 34 36 38 39 35 31 30 28 26 25 26 25 24 26 28 25 25 28 28 25 25 27 25 21 22 24 23 21 21 21 20 21 22 22 21 20
16 15 15 15 16 17 18 18 18 18 17 16 16 16 14 12 12 13 14 15 15 13 11 10 11 12 13 16 18 20 21 20 17 16 18 19 21 26 30 29 29 31 31 27 27 30 33 33 33 32 34 38 41 38 35 33 30 26 26 28 27 25 25 27 27 24 26 30 27 24 25 27 24 21 22 24 23 22 22 21 20 21 23 22 20
16 16 16 16 17 17 18 18 18 18 17 17 17 17 16 14 13 13 12 13 14 14 13 12 12 12 13 16 18 20 20 18 14 14 18 21 21 23 26 28 28 29 29 29 29 30 30 31 31 30 30 34 39 39 39 38 34 29 27 29 30 27 24 26 28 26 24 28 29 26 24 26 27 23 21 23 24 24 24 22 20 20 23 23 20
16 17 17 17 17 17 17 18 18 18 18 17 17 17 17 16 15 15 14 13 13 14 15 15 14 13 13 15 18 19 18 16 14 14 17 21 23 23 24 26 27 27 27 27 28 30 30 29 30 31 31 31 33 36 39 40 36 31 29 29 31 30 27 25 27 28 25 25 29 28 24 24 27 26 23 23 23 24 24 23 21 19 22 25 23
19 19 19 18 18 18 18 18 18 18 19 19 18 18 18 18 17 17 16 15 14 14 15 15 15 15 15 15 17 19 18 16 15 14 15 18 23 24 24 25 28 29 28 25 26 29 31 29 28 30 32 31 31 32 35 36 35 32 31 30 30 31 30 27 26 28 27 25 27 29 26 23 24 27 25 23 23 23 23 23 22 19 19 23 26
21 20 20 20 20 20 19 19 19 19 19 19 19 18 18 18 18 18 17 17 16 15 15 15 15 15 15 16 18 21 20 18 16 15 15 18 21 24 25 26 28 31 31 28 25 27 29 29 28 30 32 32 32 32 32 33 33 33 32 31 30 30 31 29 27 28 29 27 26 28 28 25 23 25 26 24 24 24 23 23 23 22 18 19 24
Wind_Direction
215 212 217 212 210 211 203 203 208 209 211 215 215 212 209 207 209 207 203 199 182 179 199 189 160 167 169 156 154 154 152 150 145 151 154 152 149 134 120 116 104 93 85 81 75 68 64 58 48 36 22 16 20 26 58 71 65 61 55 53 54 51 54 65 74 66 52 56 64 67 72 77 77 79 80 74 63 58 62 65 59 52 49 46 43
219 213 218 221 217 215 211 202 201 204 207 210 214 219 221 211 204 204 201 199 189 183 195 191 170 173 168 154 153 153 155 156 150 151 154 148 142 134 128 123 116 109 101 92 81 72 65 50 47 46 32 28 32 29 38 51 56 59 52 44 47 47 51 65 70 70 63 58 66 72 73 77 80 80 80 75 67 62 62 63 61 56 50 46 45
221 214 215 224 224 221 220 205 193 195 203 209 210 215 227 223 209 204 196 194 197 188 189 191 174 168 163 154 153 154 156 154 156 164 160 147 141 138 138 135 129 124 113 101 84 70 70 57 45 42 36 39 44 36 41 52 49 49 51 42 40 45 48 57 67 72 71 62 65 72 74 79 85 86 84 80 71 65 62 63 63 62 60 58 55
221 219 214 218 222 227 230 206 188 193 202 208 212 215 225 227 217 208 196 192 198 192 189 186 170 160 158 156 156 158 157 158 168 171 160 153 149 146 145 142 134 123 106 99 93 77 71 66 52 45 42 46 49 39 42 58 55 47 53 45 36 44 49 53 67 78 80 72 65 69 76 84 92 93 90 84 76 70 68 67 67 66 66 64 60
221 221 215 216 219 226 233 210 189 197 204 207 213 216 223 230 221 205 196 198 199 191 186 174 159 156 159 159 160 161 164 172 178 165 158 159 153 147 148 143 134 127 117 107 104 97 81 70 64 57 51 51 55 43 40 59 65 52 50 43 36 49 55 55 67 79 82 80 74 75 80 86 93 97 96 91 84 77 73 68 63 61 61 59 57
222 220 215 222 225 225 230 222 203 203 204 205 214 218 222 232 226 199 192 203 205 192 184 171 159 164 166 162 164 169 175 181 178 163 160 161 156 153 152 147 140 134 131 126 119 116 100 78 72 68 62 59 55 35 36 58 72 62 54 44 33 48 61 61 69 80 85 88 87 85 86 89 94 99 101 99 93 89 82 71 58 56 59 57 53
219 223 218 226 233 226 224 226 216 208 203 202 213 223 223 229 227 197 189 198 204 188 179 175 172 172 169 167 171 178 183 180 171 165 162 161 163 160 154 150 148 143 142 141 131 120 104 90 86 80 76 70 52 31 45 65 74 68 61 51 37 46 62 69 74 84 94 96 95 91 89 90 94 101 104 99 93 90 87 78 63 59 61 54 48
212 221 225 232 235 223 221 228 223 211 204 204 216 228 226 223 222 194 181 186 191 179 171 176 176 165 166 172 178 182 183 177 169 166 166 167 169 163 157 155 152 149 151 147 136 131 115 109 112 101 89 74 52 46 70 76 79 77 66 58 48 48 61 73 76 89 99 98 95 92 88 84 84 87 87 86 89 88 81 76 69 64 61 54 52
209 212 219 233 241 226 222 228 220 208 205 206 217 231 229 210 204 186 169 172 180 177 173 179 174 163 167 175 181 184 182 178 175 172 172 172 168 164 162 159 155 154 155 149 145 147 115 106 114 103 86 78 64 58 71 81 83 78 74 75 66 52 60 69 69 86 104 107 105 100 92 80 72 73 69 69 81 91 90 83 77 71 66 61 62
210 207 209 225 248 250 242 233 213 202 206 209 213 223 226 201 188 179 170 171 181 188 190 191 178 171 174 178 182 188 187 184 182 179 177 173 166 166 164 160 160 157 153 153 152 146 95 91 107 106 97 93 77 61 61 81 82 71 87 90 70 59 64 64 61 73 92 101 100 95 89 80 73 73 71 68 72 82 90 93 89 79 69 63 65
207 210 209 211 222 238 256 256 224 200 201 208 211 212 212 200 188 178 174 180 190 195 197 195 181 175 178 184 190 192 190 189 187 182 178 171 165 167 164 160 162 159 157 160 158 154 135 102 111 126 122 109 86 68 71 82 77 66 80 89 71 69 69 58 53 64 78 89 92 89 84 79 74 74 75 74 73 75 81 88 88 78 69 61 59
210 215 220 216 213 214 224 248 256 221 201 200 207 208 202 194 188 184 186 191 194 195 194 190 181 177 182 191 193 191 192 195 191 184 178 169 163 164 162 161 163 163 162 163 162 162 156 139 134 142 143 131 103 84 82 85 80 71 74 79 75 76 73 60 49 59 77 88 92 89 85 79 74 73 78 81 80 80 82 86 85 78 70 63 50
209 214 220 218 218 216 210 214 239 252 223 203 202 201 196 191 186 186 191 195 195 193 190 186 185 184 188 193 191 189 197 201 193 184 179 170 162 160 163 165 165 166 168 165 166 164 158 165 172 160 152 156 144 104 84 82 91 92 83 78 74 72 77 76 66 68 87 92 88 86 88 88 82 79 87 93 89 85 87 91 93 88 78 71 58
208 207 208 213 218 219 213 210 213 225 246 243 219 202 192 188 187 187 189 193 193 189 186 188 191 190 192 193 188 190 201 202 193 185 181 172 162 158 163 167 165 169 170 167 169 166 158 171 180 163 153 164 167 151 117 86 103 113 94 79 69 58 78 89 80 80 96 100 94 92 96 99 97 94 99 104 100 97 100 105 108 104 94 88 78
208 194 190 203 219 219 216 213 205 202 213 232 238 232 208 187 185 189 190 190 190 187 188 191 193 191 192 190 186 192 203 201 191 185 179 171 163 156 161 167 166 170 171 168 171 169 162 171 175 159 154 162 159 153 144 128 131 125 107 89 70 50 81 99 87 88 101 107 106 108 110 112 113 113 112 112 109 108 110 113 115 114 108 98 87
192 187 191 199 208 210 210 208 200 196 197 194 203 238 248 210 190 190 191 190 188 188 191 194 192 191 191 186 183 194 201 198 192 186 177 171 165 159 164 170 167 170 173 169 168 164 162 171 173 160 165 175 163 145 140 145 146 137 129 127 101 72 83 100 96 98 105 111 115 117 119 122 123 121 121 123 124 120 120 123 123 119 113 106 97
183 189 204 216 218 206 198 198 194 190 195 194 193 207 235 241 219 198 188 186 187 189 192 193 191 191 190 184 185 196 199 194 193 187 177 174 170 164 169 173 169 172 174 169 167 165 165 173 174 169 180 194 186 165 158 154 152 160 162 149 127 90 86 98 108 112 108 107 110 111 113 118 118 115 116 120 119 115 133 152 154 139 127 122 114
196 190 195 210 220 212 191 191 194 186 188 198 195 190 199 230 244 227 196 184 186 189 189 188 188 190 191 186 188 198 198 193 192 189 182 179 174 169 174 175 170 170 171 169 169 168 169 175 176 178 189 198 197 183 176 162 154 172 172 156 155 146 124 113 115 115 111 109 110 107 107 111 112 110 105 97 87 72 74 120 154 150 140 129 120
208 206 196 202 211 214 198 183 184 180 181 190 194 191 192 203 223 233 213 190 183 185 185 183 185 190 191 188 193 203 200 193 192 191 187 182 176 174 178 177 171 170 171 171 172 172 174 178 178 182 193 200 191 176 173 164 156 165 168 172 182 164 144 136 127 120 117 116 112 107 107 111 112 110 103 90 87 80 66 62 69 121 144 137 131
85 92 118 169 190 198 197 179 167 165 170 183 190 192 192 188 198 223 224 198 183 183 184 184 184 186 187 185 193 206 203 194 192 193 192 186 178 176 181 179 174 174 174 172 173 176 178 183 187 188 189 190 181 170 168 162 157 165 178 192 187 152 140 141 137 132 135 133 126 126 128 127 120 112 104 95 90 85 77 67 52 75 137 143 134
86 85 89 105 135 163 172 164 155 151 151 161 173 178 182 180 188 227 244 222 193 185 184 185 183 181 182 184 191 204 207 200 198 196 194 188 179 177 183 183 178 177 175 174 176 179 179 184 192 192 184 180 178 172 166 161 162 173 183 165 141 134 141 148 148 150 157 154 147 144 142 143 136 118 106 103 100 87 81 77 68 87 120 129 119
124 112 107 105 107 120 134 139 147 154 156 161 168 171 178 181 183 206 236 250 238 201 182 180 180 177 179 182 188 202 210 209 206 202 197 190 182 180 183 183 183 182 177 176 180 182 181 184 192 191 183 178 178 173 169 170 173 176 168 145 134 135 141 144 149 162 174 170 163 158 154 149 134 114 102 103 107 99 91 87 87 99 113 117 118
160 142 136 134 133 136 136 132 135 149 158 165 166 161 164 172 176 182 196 235 271 255 206 182 175 173 176 181 186 197 207 210 212 209 200 190 186 186 184 182 187 188 182 180 185 184 182 185 191 191 184 179 180 177 175 178 182 180 171 156 147 144 141 146 168 185 185 170 162 159 150 136 121 111 108 107 108 108 104 101 101 105 108 110 116
222 204 185 179 169 160 159 160 162 149 138 146 151 147 147 150 153 157 171 200 238 253 251 229 198 180 176 179 183 191 205 212 214 215 207 196 190 190 187 183 187 190 186 185 187 185 184 188 192 190 185 181 181 180 180 184 186 182 178 174 166 158 152 163 186 189 158 145 147 136 125 123 119 119 121 118 114 113 110 109 109 109 109 109 109
234 226 214 206 196 186 182 188 208 223 198 162 153 151 148 142 140 146 163 185 201 215 232 244 232 202 182 180 183 189 205 215 213 211 210 203 196 193 190 187 187 187 187 189 188 184 186 191 192 188 185 182 180 179 182 183 179 174 176 178 172 165 162 172 181 174 154 156 159 127 115 121 127 129 128 127 124 122 119 116 114 113 112 112 110
245 241 235 226 219 219 221 221 229 234 223 216 220 211 190 172 158 155 163 179 194 202 210 228 235 220 197 190 191 192 199 208 211 207 205 204 201 197 195 193 189 186 187 189 189 186 186 189 189 184 182 182 180 179 181 180 174 169 171 171 168 166 173 179 176 174 177 180 168 135 123 129 138 137 136 136 134 131 127 121 116 115 115 116 115
256 252 250 244 234 231 232 229 227 223 216 220 229 231 221 206 193 187 187 187 193 200 205 214 222 219 206 198 197 196 194 195 200 203 203 203 203 201 199 195 190 189 190 189 187 185 183 184 185 181 181 181 179 178 180 181 175 170 169 171 172 173 179 182 182 187 196 194 170 145 136 138 142 143 143 143 142 139 133 128 125 124 122 118 114
278 264 257 252 244 237 236 235 229 220 216 222 230 231 229 225 219 216 211 202 197 202 210 217 221 221 213 203 198 198 196 192 197 206 209 205 203 204 204 200 192 190 191 185 179 178 176 175 175 177 179 179 177 178 186 187 180 175 175 177 181 185 185 186 193 202 205 193 165 150 145 146 148 151 152 151 151 152 150 146 145 143 137 128 121
313 300 285 274 263 250 244 242 239 232 229 234 239 239 236 233 233 235 233 223 215 217 230 241 243 239 234 220 206 200 199 200 206 216 221 213 203 204 208 206 196 190 189 183 174 170 169 168 170 174 179 181 182 185 191 190 187 186 183 182 189 198 189 184 194 206 202 179 159 154 154 156 161 165 167 167 171 177 174 168 165 166 162 150 138
326 320 315 307 294 272 252 244 243 243 241 240 240 242 246 248 248 248 248 245 242 242 250 255 251 245 244 240 228 220 219 218 218 222 227 222 209 205 208 207 198 189 188 183 174 169 167 167 170 177 181 183 189 194 191 188 191 194 193 195 202 199 184 181 192 201 188 165 158 160 163 167 173 178 177 178 185 189 180 175 177 186 186 168 151
330 323 323 319 312 299 277 258 251 248 245 241 237 240 248 255 257 254 251 251 250 251 256 258 253 247 246 247 245 242 238 232 225 224 226 225 216 208 206 204 196 190 187 182 175 171 170 169 172 181 186 189 196 199 191 186 191 197 202 207 205 189 179 185 194 192 180 166 161 167 175 179 184 186 177 175 182 182 174 180 192 203 213 197 165
335 325 322 321 316 311 303 284 263 256 252 244 238 237 241 247 253 253 251 249 248 249 252 253 251 247 247 248 248 246 241 233 227 225 225 222 215 205 202 199 195 191 188 183 178 176 175 173 176 184 190 195 201 199 191 186 192 200 206 206 196 182 180 190 194 186 183 181 176 180 189 191 191 189 177 173 182 183 177 190 206 212 227 228 180
336 336 333 326 317 314 316 310 269 259 260 254 245 240 238 240 245 248 245 244 243 243 244 246 246 244 244 244 244 243 240 234 229 225 222 218 211 204 201 199 196 191 187 184 182 181 178 178 181 186 192 198 201 199 195 190 194 204 208 201 192 184 183 191 192 183 183 190 190 193 198 195 192 191 180 175 182 184 182 194 210 216 228 229 186
325 336 344 340 325 316 317 317 296 254 262 263 257 250 244 241 242 240 236 234 235 237 240 244 245 244 242 241 241 241 240 237 234 229 222 215 208 202 200 197 194 192 189 187 185 184 181 181 184 188 194 200 201 200 199 196 198 207 210 199 192 189 187 191 192 183 183 194 197 197 198 194 194 195 183 176 181 185 187 196 206 214 228 221 184
318 321 337 347 339 323 319 322 321 295 271 270 268 267 268 269 264 256 248 241 236 239 243 245 245 245 244 242 241 242 241 239 237 232 223 213 203 196 191 188 188 190 190 188 186 185 185 185 188 191 196 200 200 200 203 202 202 208 208 198 193 190 187 189 189 183 185 197 202 200 197 194 197 199 187 180 185 186 188 198 202 203 219 224 184
321 313 320 337 337 326 325 326 323 311 289 274 268 262 257 259 260 257 253 249 248 254 257 246 239 241 246 244 242 244 245 243 237 230 222 211 200 190 183 182 185 188 189 188 187 187 188 190 192 194 197 199 197 199 207 211 210 208 204 198 196 191 186 186 187 186 189 198 205 205 199 193 198 203 192 186 194 194 191 200 202 193 202 219 192
324 322 322 326 325 319 320 321 317 311 302 286 278 270 258 258 264 272 272 264 260 264 262 244 231 235 247 248 242 240 242 238 228 222 218 209 199 190 183 182 185 187 188 188 188 188 190 195 196 196 197 196 194 198 210 221 222 215 205 200 200 194 186 186 188 188 192 201 207 209 203 195 199 206 198 191 199 202 197 200 200 189 189 205 203
323 326 331 335 331 318 306 299 303 304 299 294 294 291 282 276 274 276 273 265 258 255 247 230 224 235 247 246 235 225 219 210 202 202 203 197 192 188 186 185 186 186 188 190 190 190 193 197 198 197 197 196 196 201 211 220 226 224 212 204 205 198 187 185 188 190 196 205 211 211 206 201 201 206 205 201 201 205 205 203 196 184 179 190 200
321 325 331 336 333 321 309 292 266 253 260 264 262 258 262 260 248 242 245 247 252 257 244 221 214 224 232 227 215 203 196 191 188 189 191 189 188 189 190 188 186 187 189 191 193 195 196 198 198 198 199 199 199 204 209 214 222 227 219 208 208 203 189 184 186 190 196 206 214 212 206 204 204 205 208 210 207 205 209 209 192 177 173 179 189
320 321 325 327 324 320 313 302 279 236 225 235 235 233 242 244 236 231 230 231 243 260 258 234 216 211 211 215 210 198 190 187 189 191 190 188 189 191 193 190 188 188 190 192 195 198 199 201 203 201 199 198 199 202 205 208 216 226 221 208 204 204 193 185 187 192 196 204 213 215 206 203 206 207 208 215 216 207 206 209 195 176 171 178 187
319 317 317 317 315 313 309 303 294 278 259 249 237 229 235 239 234 230 227 226 236 254 264 263 246 219 208 213 216 202 192 188 193 195 195 193 192 194 195 193 192 191 191 193 197 199 201 202 204 202 199 199 201 206 208 210 216 225 223 208 201 202 199 191 190 195 196 200 211 217 207 199 204 209 208 213 221 215 202 204 201 181 174 182 194
316 313 311 311 310 307 303 301 300 296 288 279 261 245 244 248 245 239 234 232 236 244 258 277 278 233 209 210 213 201 195 195 197 199 200 201 200 199 197 196 196 195 195 197 200 202 202 201 200 199 198 199 203 209 211 211 214 222 223 211 200 201 203 199 195 197 197 199 207 216 212 199 200 209 210 208 216 219 205 199 202 190 177 182 195
311 308 305 302 300 299 299 299 300 299 296 291 282 270 261 254 252 252 248 242 239 241 250 267 276 227 206 208 204 193 194 199 204 204 203 204 205 205 204 204 203 201 202 205 206 206 205 203 201 201 201 202 205 209 209 208 211 220 224 214 201 199 203 202 198 197 197 198 203 212 215 204 197 206 213 205 205 214 210 200 201 199 188 187 194
304 302 302 300 299 301 302 303 304 303 299 293 284 276 268 255 250 256 263 256 246 238 240 251 255 219 201 203 200 193 193 198 205 208 205 205 206 207 208 210 209 206 207 211 211 209 207 207 206 207 207 208 208 208 205 205 211 219 223 212 201 200 202 204 200 197 196 198 200 207 216 213 199 201 211 207 200 206 210 202 199 200 197 197 198
301 301 303 303 302 301 299 297 297 298 296 293 287 277 266 254 246 246 251 259 260 250 238 240 243 229 211 208 206 203 201 200 203 205 206 208 209 208 207 209 209 207 208 212 211 208 208 209 210 209 211 212 211 209 205 206 212 220 221 213 206 202 203 205 206 200 197 199 199 203 212 218 205 197 204 210 204 204 208 204 199 199 199 204 206
299 299 300 299 300 301 301 299 298 297 295 294 293 287 276 261 247 242 241 246 253 256 250 243 238 230 222 218 215 212 209 207 207 211 212 213 217 216 214 212 210 208 207 210 210 208 208 209 210 211 213 214 215 214 210 208 213 220 222 216 212 208 205 205 208 204 199 199 200 200 206 215 213 200 200 207 209 207 208 207 202 200 200 204 211
295 295 297 300 303 304 304 302 299 296 292 288 286 285 280 267 252 245 240 236 233 235 243 249 241 227 219 218 220 219 214 209 211 221 222 220 222 222 219 216 213 209 209 211 212 210 209 209 210 212 215 216 217 217 214 211 215 224 224 217 214 214 207 204 207 208 201 198 199 200 202 208 213 209 202 203 207 210 212 211 207 202 201 203 211
296 299 300 301 301 301 301 300 299 297 294 291 289 288 287 280 268 259 253 242 228 219 222 233 238 232 222 217 218 220 216 210 213 226 228 226 226 224 219 217 215 211 210 213 211 206 205 207 208 211 215 217 219 220 218 215 218 226 224 216 213 215 212 204 204 208 204 197 196 199 202 204 209 212 209 204 205 208 213 217 214 204 199 201 208
298 299 298 297 296 295 295 296 297 296 295 295 293 292 292 290 283 273 264 254 240 224 219 225 232 233 226 214 209 212 214 212 214 223 227 228 229 227 220 217 216 212 210 211 210 206 207 208 207 209 214 217 218 219 218 218 220 224 221 215 212 214 215 209 204 204 205 199 194 197 203 203 203 208 212 209 206 207 211 217 218 207 196 198 206
296 297 295 294 293 292 290 289 291 291 292 292 290 288 287 286 284 279 271 262 252 243 235 231 229 227 225 217 208 206 208 209 211 219 227 229 230 229 223 220 218 214 211 209 208 209 213 216 213 211 213 214 213 214 215 216 218 219 217 214 212 212 213 213 208 203 204 202 195 196 202 203 200 203 208 209 207 207 209 213 216 210 196 195 203
291 292 291 289 287 286 286 285 284 283 284 285 284 282 280 278 278 279 277 269 259 250 244 239 233 230 230 225 213 207 208 209 210 216 223 225 227 228 226 223 220 218 215 212 208 207 213 220 220 217 215 213 212 213 213 214 216 216 214 214 215 212 210 213 211 204 202 202 197 195 200 204 202 202 204 206 206 208 210 210 211 211 206 198 199